Location: La Comballaz
(46.3780°N, 7.0817°E)
Time: 02:55:59
(UTC+00:00)

RS-44 - Visible Passes

Search period start: 10 December 2022 00:00
Search period end: 20 December 2022 00:00
Orbit: 1175 x 1510 km, 82.5° (Epoch: 09 December)

Date Brightness Start Highest point End Pass type
(mag) Time Alt. Az. Time Alt. Az. Time Alt. Az.
10 Dec ? 00:52:53 13° NNE 00:52:53 13° NNE 00:53:46 10° NNE visible
10 Dec ? 02:45:30 23° N 02:45:30 23° N 02:48:17 10° N visible
10 Dec ? 04:38:07 15° NNW 04:38:07 15° NNW 04:40:32 10° NNW visible
11 Dec ? 01:16:49 15° NNE 01:16:49 15° NNE 01:18:10 10° NNE visible
11 Dec ? 03:09:26 21° N 03:09:26 21° N 03:12:02 10° N visible
11 Dec ? 05:02:03 11° NNW 05:02:03 11° NNW 05:03:05 10° NNW visible
12 Dec ? 01:40:44 17° NNE 01:40:44 17° NNE 01:42:20 10° NNE visible
12 Dec ? 03:33:20 18° NNW 03:33:20 18° NNW 03:35:39 10° N visible
13 Dec ? 02:04:37 17° N 02:04:37 17° N 02:06:19 10° N visible
13 Dec ? 03:57:13 15° NNW 03:57:13 15° NNW 03:59:05 10° N visible
14 Dec ? 02:28:28 17° N 02:28:28 17° N 02:30:10 10° N visible
14 Dec ? 04:21:04 12° NNW 04:21:04 12° NNW 04:22:12 10° NNW visible
15 Dec ? 00:59:43 12° NNE 00:59:43 12° NNE 01:00:10 10° NNE visible
15 Dec ? 02:52:19 16° N 02:52:19 16° N 02:53:52 10° N visible
16 Dec ? 01:23:32 13° NNE 01:23:32 13° NNE 01:24:16 10° NNE visible
16 Dec ? 03:16:08 14° N 03:16:08 14° N 03:17:27 10° N visible
17 Dec ? 01:47:21 14° N 01:47:21 14° N 01:48:12 10° N visible
17 Dec ? 03:39:57 12° NNW 03:39:57 12° NNW 03:40:48 10° N visible
18 Dec ? 02:11:08 14° N 02:11:08 14° N 02:12:01 10° N visible
18 Dec ? 04:03:44 10° NNW 04:03:44 10° NNW 04:03:46 10° NNW visible
19 Dec ? 02:34:55 13° N 02:34:55 13° N 02:35:41 10° N visible
